| time (UTC) | temp F | wind direction | speed knots | gust knots | rain 1hr in | rain 24hr in | rain mn in | humidity % | barometer mb |
| 20260510204020 | 50 | 23 | 4.3 | 7.8 | 0.02 | 0.03 | 0.03 | 86 | 1010.7 |
| 20260510203030 | 50 | 315 | 3.5 | 7.0 | 0.02 | 0.02 | 0.02 | 85 | 1010.8 |
| 20260510202052 | 50 | 0 | 4.3 | 11.3 | 0.02 | 0.02 | 0.02 | 85 | 1010.8 |
| 20260510201019 | 50 | 23 | 7.0 | 8.7 | 0.02 | 0.02 | 0.02 | 85 | 1010.9 |
| 20260510200019 | 50 | 23 | 7.8 | 13.9 | 0.02 | 0.02 | 0.02 | 84 | 1010.9 |
| 20260510195030 | 50 | 23 | 7.0 | 13.9 | 0.02 | 0.02 | 0.02 | 84 | 1010.9 |
| 20260510194030 | 50 | 23 | 7.8 | 11.3 | 0.02 | 0.02 | 0.02 | 83 | 1010.9 |
| 20260510193059 | 51 | 23 | 4.3 | 7.8 | 0.01 | 0.01 | 0.01 | 84 | 1010.6 |
| 20260510192039 | 51 | 23 | 7.0 | 11.3 | 0.01 | 0.01 | 0.01 | 83 | 1010.8 |
| 20260510191030 | 51 | 45 | 5.2 | 13.0 | 0.01 | 0.01 | 0.01 | 83 | 1010.8 |
| 20260510190052 | 51 | 23 | 7.8 | 13.9 | 0.00 | 0.00 | 0.00 | 81 | 1010.9 |
| 20260510185019 | 51 | 45 | 7.0 | 13.9 | 0.00 | 0.00 | 0.00 | 81 | 1011.0 |
| 20260510184019 | 52 | 23 | 9.6 | 13.9 | 0.00 | 0.00 | 0.00 | 81 | 1011.0 |
| 20260510183019 | 52 | 23 | 7.0 | 16.5 | 0.00 | 0.00 | 0.00 | 81 | 1011.0 |
| 20260510182019 | 52 | 23 | 6.1 | 10.4 | 0.00 | 0.00 | 0.00 | 79 | 1011.2 |
| 20260510181019 | 52 | 23 | 5.2 | 10.4 | 0.00 | 0.00 | 0.00 | 79 | 1011.1 |
| 20260510180041 | 52 | 45 | 8.7 | 15.6 | 0.00 | 0.00 | 0.00 | 80 | 1011.0 |
| 20260510175019 | 52 | 23 | 9.6 | 17.4 | 0.00 | 0.00 | 0.00 | 80 | 1010.9 |
| 20260510174051 | 52 | 23 | 8.7 | 15.6 | 0.00 | 0.00 | 0.00 | 80 | 1010.9 |
| 20260510173039 | 53 | 23 | 11.3 | 16.5 | 0.00 | 0.00 | 0.00 | 80 | 1011.0 |
| 20260510172041 | 53 | 23 | 7.0 | 13.9 | 0.00 | 0.00 | 0.00 | 80 | 1010.9 |
| 20260510171019 | 53 | 23 | 13.0 | 21.7 | 0.00 | 0.00 | 0.00 | 79 | 1011.0 |
| 20260510170019 | 53 | 23 | 6.1 | 10.4 | 0.00 | 0.00 | 0.00 | 79 | 1011.1 |
| 20260510165019 | 53 | 0 | 11.3 | 16.5 | 0.00 | 0.00 | 0.00 | 78 | 1011.1 |
| 20260510164040 | 54 | 23 | 9.6 | 14.8 | 0.00 | 0.00 | 0.00 | 78 | 1011.2 |
| 20260510163019 | 54 | 23 | 10.4 | 13.9 | 0.00 | 0.00 | 0.00 | 78 | 1011.4 |
| 20260510162019 | 54 | 338 | 7.0 | 11.3 | 0.00 | 0.00 | 0.00 | 78 | 1011.5 |
| 20260510161214 | 54 | 45 | 8.7 | 14.8 | 0.00 | 0.00 | 0.00 | 78 | 1011.8 |
| 20260510160423 | 54 | 23 | 7.8 | 12.2 | 0.00 | 0.00 | 0.00 | 78 | 1011.8 |
| 20260510160051 | 54 | 23 | 9.6 | 18.2 | 0.00 | 0.00 | 0.00 | 78 | 1011.9 |
| 20260510155019 | 54 | 23 | 8.7 | 17.4 | 0.00 | 0.00 | 0.00 | 78 | 1011.8 |
| 20260510154019 | 55 | 23 | 9.6 | 20.9 | 0.00 | 0.00 | 0.00 | 77 | 1012.1 |
| 20260510153032 | 55 | 23 | 10.4 | 17.4 | 0.00 | 0.00 | 0.00 | 77 | 1012.1 |
| 20260510152029 | 56 | 23 | 10.4 | 16.5 | 0.00 | 0.00 | 0.00 | 76 | 1012.1 |
| 20260510151019 | 56 | 23 | 7.8 | 15.6 | 0.00 | 0.00 | 0.00 | 75 | 1012.3 |
| 20260510150019 | 56 | 0 | 11.3 | 19.1 | 0.00 | 0.00 | 0.00 | 74 | 1012.6 |
| 20260510145019 | 56 | 23 | 9.6 | 15.6 | 0.00 | 0.00 | 0.00 | 73 | 1012.6 |
| 20260510144131 | 57 | 23 | 11.3 | 17.4 | 0.00 | 0.00 | 0.00 | 73 | 1012.8 |
| 20260510143051 | 57 | 338 | 8.7 | 15.6 | 0.00 | 0.00 | 0.00 | 72 | 1012.7 |
| 20260510142019 | 57 | 45 | 6.1 | 11.3 | 0.00 | 0.00 | 0.00 | 71 | 1012.8 |
| 20260510141030 | 58 | 23 | 6.1 | 13.9 | 0.00 | 0.00 | 0.00 | 71 | 1012.7 |
| 20260510140019 | 57 | 68 | 5.2 | 11.3 | 0.00 | 0.00 | 0.00 | 71 | 1012.7 |
| 20260510135018 | 58 | 23 | 8.7 | 19.1 | 0.00 | 0.00 | 0.00 | 70 | 1012.9 |
| 20260510134039 | 58 | 45 | 8.7 | 12.2 | 0.00 | 0.00 | 0.00 | 71 | 1013.0 |
| 20260510133019 | 59 | 23 | 11.3 | 17.4 | 0.00 | 0.00 | 0.00 | 69 | 1013.0 |
| 20260510132019 | 58 | 23 | 13.9 | 20.0 | 0.00 | 0.00 | 0.00 | 69 | 1013.2 |
| 20260510131040 | 58 | 23 | 7.0 | 12.2 | 0.00 | 0.00 | 0.00 | 71 | 1013.3 |
| 20260510130041 | 59 | 23 | 10.4 | 17.4 | 0.00 | 0.00 | 0.00 | 70 | 1013.3 |
| 20260510125018 | 59 | 23 | 7.8 | 18.2 | 0.00 | 0.00 | 0.00 | 69 | 1013.2 |
| 20260510124018 | 59 | 23 | 7.8 | 12.2 | 0.00 | 0.00 | 0.00 | 71 | 1013.4 |
| 20260510123018 | 59 | 23 | 10.4 | 12.2 | 0.00 | 0.00 | 0.00 | 71 | 1013.5 |
| 20260510122019 | 59 | 23 | 8.7 | 15.6 | 0.00 | 0.00 | 0.00 | 72 | 1013.6 |
| 20260510121029 | 59 | 23 | 9.6 | 13.9 | 0.00 | 0.00 | 0.00 | 71 | 1013.5 |
| 20260510120019 | 60 | 0 | 8.7 | 15.6 | 0.00 | 0.00 | 0.00 | 71 | 1013.5 |
| 20260510115019 | 59 | 45 | 8.7 | 13.0 | 0.00 | 0.00 | 0.00 | 72 | 1013.5 |
| 20260510114020 | 60 | 45 | 5.2 | 11.3 | 0.00 | 0.00 | 0.00 | 71 | 1013.7 |
| 20260510113042 | 60 | 45 | 7.0 | 13.0 | 0.00 | 0.00 | 0.00 | 71 | 1014.0 |
| 20260510112018 | 60 | 23 | 8.7 | 15.6 | 0.00 | 0.00 | 0.00 | 71 | 1014.1 |
| 20260510111018 | 60 | 23 | 10.4 | 14.8 | 0.00 | 0.00 | 0.00 | 70 | 1014.0 |
| 20260510110049 | 60 | 23 | 13.0 | 19.1 | 0.00 | 0.00 | 0.00 | 70 | 1013.8 |
| 20260510105018 | 60 | 0 | 9.6 | 11.3 | 0.00 | 0.00 | 0.00 | 70 | 1014.0 |
| 20260510104018 | 60 | 45 | 9.6 | 18.2 | 0.00 | 0.00 | 0.00 | 69 | 1013.7 |
| 20260510103018 | 60 | 45 | 5.2 | 10.4 | 0.00 | 0.00 | 0.00 | 69 | 1013.8 |
| 20260510102018 | 61 | 0 | 8.7 | 17.4 | 0.00 | 0.00 | 0.00 | 68 | 1014.1 |
| 20260510101029 | 61 | 45 | 4.3 | 7.0 | 0.00 | 0.00 | 0.00 | 67 | 1013.9 |
| 20260510100040 | 61 | 23 | 8.7 | 14.8 | 0.00 | 0.00 | 0.00 | 68 | 1014.1 |
| 20260510095018 | 60 | 23 | 7.0 | 14.8 | 0.00 | 0.00 | 0.00 | 67 | 1014.3 |
| 20260510094020 | 61 | 45 | 7.0 | 13.0 | 0.00 | 0.00 | 0.00 | 67 | 1014.1 |
| 20260510093049 | 61 | 0 | 9.6 | 18.2 | 0.00 | 0.00 | 0.00 | 66 | 1014.3 |
| 20260510092042 | 60 | 23 | 8.7 | 13.9 | 0.00 | 0.00 | 0.00 | 68 | 1014.4 |
| 20260510091112 | 60 | 0 | 4.3 | 7.8 | 0.00 | 0.00 | 0.00 | 67 | 1014.3 |
| 20260510090020 | 61 | 45 | 6.1 | 9.6 | 0.00 | 0.00 | 0.00 | 67 | 1014.1 |
| 20260510085101 | 61 | 23 | 7.0 | 12.2 | 0.00 | 0.00 | 0.00 | 66 | 1013.9 |
| 20260510084020 | 60 | 45 | 8.7 | 13.0 | 0.00 | 0.00 | 0.00 | 64 | 1014.1 |
| 20260510083020 | 60 | 0 | 9.6 | 13.9 | 0.00 | 0.00 | 0.00 | 67 | 1014.3 |
| 20260510082018 | 60 | 23 | 6.1 | 13.0 | 0.00 | 0.00 | 0.00 | 69 | 1014.2 |
| 20260510081040 | 60 | 23 | 5.2 | 14.8 | 0.00 | 0.00 | 0.00 | 69 | 1014.4 |
| 20260510080038 | 59 | 45 | 7.0 | 10.4 | 0.00 | 0.00 | 0.00 | 68 | 1014.4 |
| 20260510075020 | 59 | 45 | 7.8 | 12.2 | 0.00 | 0.00 | 0.00 | 67 | 1014.7 |
| 20260510074018 | 60 | 23 | 10.4 | 15.6 | 0.00 | 0.00 | 0.00 | 68 | 1014.7 |
| 20260510073020 | 59 | 45 | 6.1 | 11.3 | 0.00 | 0.00 | 0.00 | 69 | 1014.8 |
| 20260510072018 | 59 | 23 | 6.1 | 12.2 | 0.00 | 0.00 | 0.00 | 70 | 1014.8 |
| 20260510071052 | 58 | 23 | 8.7 | 11.3 | 0.00 | 0.00 | 0.00 | 70 | 1015.0 |
| 20260510070040 | 58 | 0 | 6.1 | 9.6 | 0.00 | 0.00 | 0.00 | 71 | 1015.0 |
| 20260510065031 | 57 | 45 | 6.1 | 11.3 | 0.00 | 0.00 | 0.00 | 73 | 1015.0 |
| 20260510064020 | 57 | 45 | 6.1 | 9.6 | 0.00 | 0.00 | 0.00 | 75 | 1015.1 |
| 20260510063003 | 56 | 45 | 4.3 | 8.7 | 0.00 | 0.00 | 0.00 | 76 | 1015.0 |
| 20260510062044 | 56 | 338 | 4.3 | 8.7 | 0.00 | 0.00 | 0.00 | 79 | 1015.0 |
| 20260510061020 | 55 | 0 | 3.5 | 5.2 | 0.00 | 0.00 | 0.00 | 79 | 1014.9 |
| 20260510060040 | 55 | 45 | 3.5 | 7.0 | 0.00 | 0.00 | 0.00 | 81 | 1014.8 |
| 20260510055020 | 54 | 45 | 7.0 | 9.6 | 0.00 | 0.00 | 0.00 | 82 | 1014.7 |
| 20260510054019 | 54 | 45 | 4.3 | 8.7 | 0.00 | 0.00 | 0.00 | 82 | 1014.8 |
| 20260510053020 | 54 | 45 | 3.5 | 7.0 | 0.00 | 0.00 | 0.00 | 83 | 1014.8 |
| 20260510052050 | 53 | 45 | 4.3 | 7.0 | 0.00 | 0.00 | 0.00 | 84 | 1014.9 |
| 20260510051031 | 53 | 68 | 1.7 | 3.5 | 0.00 | 0.00 | 0.00 | 84 | 1014.8 |
| 20260510050031 | 53 | 45 | 7.0 | 12.2 | 0.00 | 0.00 | 0.00 | 85 | 1014.7 |
| 20260510045020 | 53 | 45 | 3.5 | 9.6 | 0.00 | 0.00 | 0.00 | 85 | 1014.7 |
| 20260510044020 | 53 | 45 | 3.5 | 5.2 | 0.00 | 0.00 | 0.00 | 86 | 1014.9 |
| 20260510043020 | 53 | 0 | 3.5 | 7.8 | 0.00 | 0.00 | 0.00 | 85 | 1014.9 |
| 20260510042100 | 53 | 315 | 1.7 | 3.5 | 0.00 | 0.00 | 0.00 | 85 | 1014.8 |
| 20260510041019 | 53 | 68 | 2.6 | 4.3 | 0.00 | 0.00 | 0.00 | 85 | 1014.7 |
| 20260510040020 | 53 | 45 | 3.5 | 7.8 | 0.00 | 0.00 | 0.00 | 84 | 1014.7 |
| 20260510035020 | 53 | 23 | 3.5 | 8.7 | 0.00 | 0.00 | 0.00 | 84 | 1014.5 |
| 20260510034041 | 53 | 23 | 4.3 | 7.8 | 0.00 | 0.00 | 0.00 | 84 | 1014.5 |
| 20260510033020 | 53 | 23 | 3.5 | 5.2 | 0.00 | 0.00 | 0.00 | 84 | 1014.5 |
| 20260510032019 | 53 | 90 | 3.5 | 7.8 | 0.00 | 0.00 | 0.00 | 84 | 1014.6 |
| 20260510031040 | 53 | 23 | 3.5 | 5.2 | 0.00 | 0.00 | 0.00 | 84 | 1014.6 |
| 20260510030019 | 53 | 23 | 0.9 | 1.7 | 0.00 | 0.00 | 0.00 | 85 | 1014.6 |
| 20260510025050 | 53 | 23 | 2.6 | 3.5 | 0.00 | 0.00 | 0.00 | 85 | 1014.6 |
| 20260510024020 | 53 | 45 | 3.5 | 5.2 | 0.00 | 0.00 | 0.00 | 85 | 1014.6 |
| 20260510023020 | 54 | 338 | 1.7 | 6.1 | 0.00 | 0.00 | 0.00 | 84 | 1014.7 |
| 20260510022030 | 54 | 23 | 2.6 | 3.5 | 0.00 | 0.00 | 0.00 | 84 | 1014.7 |
| 20260510021019 | 54 | 68 | 1.7 | 2.6 | 0.00 | 0.00 | 0.00 | 84 | 1014.8 |
| 20260510020020 | 54 | 23 | 1.7 | 3.5 | 0.00 | 0.00 | 0.00 | 84 | 1014.9 |
| 20260510015041 | 54 | 45 | 3.5 | 7.0 | 0.00 | 0.00 | 0.00 | 84 | 1014.9 |
| 20260510014041 | 54 | 0 | 5.2 | 8.7 | 0.00 | 0.00 | 0.00 | 83 | 1015.0 |
| 20260510013020 | 54 | 0 | 4.3 | 7.8 | 0.00 | 0.00 | 0.00 | 83 | 1015.0 |
| 20260510012101 | 54 | 0 | 2.6 | 4.3 | 0.00 | 0.00 | 0.00 | 83 | 1015.1 |
| 20260510011019 | 54 | 23 | 2.6 | 7.0 | 0.00 | 0.00 | 0.00 | 83 | 1015.1 |
| 20260510010019 | 54 | 23 | 4.3 | 9.6 | 0.00 | 0.00 | 0.00 | 82 | 1015.1 |
| 20260510005019 | 54 | 45 | 3.5 | 5.2 | 0.00 | 0.00 | 0.00 | 81 | 1015.2 |
| 20260510004019 | 54 | 23 | 3.5 | 5.2 | 0.00 | 0.00 | 0.00 | 81 | 1015.4 |
| 20260510003019 | 54 | 45 | 3.5 | 4.3 | 0.00 | 0.00 | 0.00 | 81 | 1015.6 |
| 20260510002019 | 54 | 45 | 1.7 | 2.6 | 0.00 | 0.00 | 0.00 | 80 | 1015.6 |
| 20260510001019 | 54 | 23 | 3.5 | 4.3 | 0.00 | 0.00 | 0.00 | 80 | 1015.6 |
| 20260510000019 | 54 | 0 | 2.6 | 4.3 | 0.00 | 0.00 | 0.00 | 79 | 1015.7 |
| 20260509235030 | 54 | 23 | 2.6 | 4.3 | 0.00 | 0.00 | 0.00 | 79 | 1015.7 |
| 20260509234019 | 54 | 23 | 3.5 | 5.2 | 0.00 | 0.00 | 0.00 | 78 | 1015.7 |
| 20260509233019 | 54 | 45 | 4.3 | 6.1 | 0.00 | 0.00 | 0.00 | 78 | 1015.8 |
| 20260509232042 | 54 | 23 | 3.5 | 4.3 | 0.00 | 0.00 | 0.00 | 77 | 1016.0 |
| 20260509231213 | 54 | 45 | 2.6 | 4.3 | 0.00 | 0.00 | 0.00 | 77 | 1015.8 |
| 20260509230820 | 55 | 23 | 2.6 | 4.3 | 0.00 | 0.00 | 0.00 | 77 | 1015.9 |
| 20260509225819 | 55 | 45 | 3.5 | 7.0 | 0.00 | 0.00 | 0.00 | 77 | 1015.9 |
| 20260509224819 | 55 | 45 | 5.2 | 8.7 | 0.00 | 0.00 | 0.00 | 76 | 1016.0 |
| 20260509223841 | 55 | 45 | 3.5 | 8.7 | 0.00 | 0.00 | 0.00 | 75 | 1016.0 |
| 20260509222819 | 55 | 23 | 5.2 | 8.7 | 0.00 | 0.00 | 0.00 | 75 | 1016.0 |
| 20260509221819 | 55 | 45 | 3.5 | 5.2 | 0.00 | 0.00 | 0.00 | 75 | 1015.9 |
| 20260509220819 | 55 | 23 | 3.5 | 5.2 | 0.00 | 0.00 | 0.00 | 74 | 1016.0 |
| 20260509215830 | 55 | 23 | 3.5 | 7.0 | 0.00 | 0.00 | 0.00 | 73 | 1015.9 |
| 20260509214830 | 55 | 0 | 5.2 | 7.8 | 0.00 | 0.00 | 0.00 | 73 | 1015.9 |
| 20260509213819 | 55 | 23 | 3.5 | 5.2 | 0.00 | 0.00 | 0.00 | 72 | 1016.0 |
| 20260509212819 | 55 | 45 | 1.7 | 3.5 | 0.00 | 0.00 | 0.00 | 71 | 1015.9 |
| 20260509211819 | 55 | 23 | 1.7 | 3.5 | 0.00 | 0.00 | 0.00 | 71 | 1015.9 |
| 20260509210841 | 56 | 45 | 2.6 | 4.3 | 0.00 | 0.00 | 0.00 | 71 | 1015.9 |
| 20260509205919 | 56 | 45 | 1.7 | 3.5 | 0.00 | 0.00 | 0.00 | 71 | 1015.9 |
| 20260509204819 | 56 | 23 | 1.7 | 3.5 | 0.00 | 0.00 | 0.00 | 71 | 1015.7 |